WX8TJG-WX Weather Reports


time (UTC)temp
C
wind
direction
speed
KPH
gust
KPH
rain 1hr
cm
rain 24hr
cm
rain mn
cm
humidity
%
barometer
mb
20260508135016 12 244 8.0 19.3 0.00 0.05 0.05 68 1013.6
20260508134017 12 238 6.4 12.9 0.00 0.05 0.05 70 1013.7
20260508133017 11 221 6.4 12.9 0.00 0.05 0.05 71 1013.6
20260508132017 11 227 6.4 11.3 0.00 0.05 0.05 72 1013.6
20260508131017 11 227 4.8 9.7 0.00 0.05 0.05 73 1013.6
20260508130017 10 212 3.2 8.0 0.00 0.05 0.05 74 1013.6
20260508125018 10 228 3.2 8.0 0.00 0.05 0.05 74 1013.7
20260508124018 10 235 4.8 9.7 0.00 0.05 0.05 73 1013.7
20260508123018 10 230 4.8 8.0 0.00 0.05 0.05 73 1013.7
20260508122018 9 207 4.8 9.7 0.00 0.05 0.05 74 1013.5
20260508121018 9 208 4.8 12.9 0.00 0.05 0.05 74 1013.4
20260508120016 9 205 4.8 8.0 0.00 0.05 0.05 74 1013.4
20260508115016 8 200 4.8 12.9 0.00 0.05 0.05 75 1013.3
20260508114036 8 202 3.2 8.0 0.00 0.05 0.05 76 1013.1
20260508113016 8 204 4.8 12.9 0.00 0.05 0.05 77 1013.1
20260508112016 7 191 6.4 14.5 0.00 0.05 0.05 78 1013.1
20260508111016 7 191 6.4 16.1 0.00 0.05 0.05 79 1013.1
20260508110017 7 193 6.4 12.9 0.00 0.05 0.05 79 1013.1
20260508105016 7 189 6.4 12.9 0.00 0.05 0.05 80 1013.0
20260508104016 7 182 6.4 9.7 0.00 0.05 0.05 80 1012.9
20260508103025 7 180 6.4 12.9 0.00 0.05 0.05 80 1012.7
20260508102037 6 181 6.4 11.3 0.00 0.05 0.05 82 1012.7
20260508101037 6 174 4.8 9.7 0.00 0.05 0.05 82 1012.6
20260508100017 6 178 4.8 8.0 0.00 0.05 0.05 83 1012.6
20260508095018 7 175 6.4 9.7 0.00 0.05 0.05 83 1012.7
20260508094018 7 177 4.8 8.0 0.00 0.05 0.05 83 1012.8
20260508093038 7 181 4.8 11.3 0.00 0.05 0.05 83 1012.8
20260508092018 7 177 6.4 11.3 0.00 0.05 0.05 84 1012.8
20260508091018 6 175 4.8 9.7 0.00 0.05 0.05 85 1012.9
20260508090035 6 170 4.8 9.7 0.00 0.05 0.05 87 1012.9
20260508085015 6 172 4.8 8.0 0.00 0.05 0.05 90 1012.9
20260508084036 6 167 1.6 6.4 0.00 0.05 0.05 91 1013.0
20260508083016 6 179 1.6 4.8 0.00 0.05 0.05 91 1013.1
20260508082016 6 149 1.6 4.8 0.00 0.05 0.05 90 1013.0
20260508081036 6 152 1.6 4.8 0.00 0.05 0.05 90 1013.0
20260508080016 6 146 4.8 9.7 0.00 0.05 0.05 89 1013.1
20260508075017 7 164 3.2 8.0 0.03 0.05 0.05 88 1013.2
20260508074016 7 165 3.2 6.4 0.03 0.05 0.05 88 1013.2
20260508073017 7 171 4.8 8.0 0.03 0.05 0.05 88 1013.4
20260508072037 7 296 1.6 4.8 0.03 0.05 0.05 87 1013.8
20260508071017 7 313 6.4 12.9 0.03 0.05 0.05 87 1014.1
20260508070017 8 332 3.2 8.0 0.03 0.05 0.05 84 1014.0
20260508065018 8 325 6.4 14.5 0.00 0.03 0.03 84 1014.1
20260508064018 8 232 4.8 12.9 0.00 0.03 0.03 82 1014.1
20260508063020 7 219 4.8 12.9 0.03 0.03 0.03 83 1014.2
20260508062058 7 193 4.8 8.0 0.03 0.03 0.03 84 1014.1
20260508061018 7 204 1.6 4.8 0.03 0.03 0.03 83 1014.3
20260508060016 8 217 1.6 4.8 0.03 0.03 0.03 82 1014.3
20260508055016 8 254 4.8 11.3 0.03 0.03 0.03 80 1014.4
20260508054016 8 282 8.0 19.3 0.03 0.03 0.03 77 1014.6
20260508053016 8 265 4.8 11.3 0.00 0.00 0.00 76 1014.5
20260508052016 8 254 3.2 6.4 0.00 0.00 0.00 79 1014.3
20260508051016 7 0.0 0.0 0.00 0.00 0.00 82 1013.8
20260508050016 8 359 1.6 3.2 0.00 0.00 0.00 81 1013.8
20260508045016 7 136 3.2 4.8 0.00 0.00 0.00 81 1013.7
20260508044016 7 192 0.0 1.6 0.00 0.00 0.00 83 1013.8
20260508043017 7 131 1.6 3.2 0.00 0.00 0.00 82 1013.8
20260508042017 7 133 1.6 3.2 0.00 0.00 0.00 80 1013.7
20260508041037 7 33 0.0 1.6 0.00 0.00 0.00 79 1013.9
20260508040020 7 173 0.0 3.2 0.00 0.00 0.00 77 1013.9
20260508035037 7 0.0 0.0 0.00 0.00 0.00 78 1014.0
20260508034017 7 203 0.0 3.2 0.00 0.00 0.00 79 1013.9
20260508033018 8 139 3.2 4.8 0.00 0.00 0.00 76 1013.9
20260508032018 8 154 0.0 1.6 0.00 0.00 0.00 70 1014.0
20260508031018 8 317 1.6 6.4 0.00 0.00 0.00 71 1014.3
20260508030015 8 30 0.0 3.2 0.00 0.00 0.00 70 1014.3
20260508025017 8 326 1.6 3.2 0.00 0.00 0.00 69 1014.4
20260508024017 8 337 1.6 3.2 0.00 0.00 0.00 73 1014.1
20260508023037 8 1 0.0 3.2 0.00 0.00 0.00 69 1014.1
20260508022019 9 15 0.0 1.6 0.00 0.00 0.00 65 1014.1
20260508021016 10 337 1.6 3.2 0.00 0.00 0.00 62 1014.1
20260508020017 10 286 1.6 3.2 0.00 0.00 0.00 61 1014.1
20260508015017 10 264 1.6 3.2 0.00 0.00 0.00 60 1014.0
20260508014037 10 284 4.8 12.9 0.00 0.00 0.00 57 1014.0
20260508013016 10 275 3.2 9.7 0.00 0.00 0.00 57 1014.0
20260508012017 10 230 3.2 9.7 0.00 0.00 0.00 57 1013.8
20260508011017 10 279 9.7 17.7 0.00 0.00 0.00 57 1013.8
20260508010017 9 319 1.6 11.3 0.00 0.00 0.00 63 1013.6
20260508005037 8 0.0 0.0 0.00 0.00 0.00 62 1013.6
20260508004018 9 201 0.0 1.6 0.00 0.00 0.00 62 1013.4
20260508003018 10 291 0.0 0.0 0.00 0.00 0.00 58 1013.4
20260508002018 10 296 0.0 3.2 0.00 0.00 0.00 55 1013.3
20260508001018 11 283 3.2 8.0 0.00 0.00 0.00 53 1013.2
20260508000015 11 268 8.0 16.1 0.00 0.00 0.00 51 1013.2
20260507235016 11 272 6.4 12.9 0.00 0.00 0.00 50 1013.1
20260507234016 12 275 8.0 12.9 0.00 0.00 0.00 49 1013.1
20260507233016 12 288 8.0 14.5 0.00 0.00 0.00 48 1013.0
20260507232016 12 295 6.4 11.3 0.00 0.00 0.00 47 1013.0
20260507231056 12 314 6.4 12.9 0.00 0.00 0.00 47 1013.0
20260507230017 12 293 8.0 12.9 0.00 0.00 0.00 47 1013.2
20260507225017 12 326 8.0 14.5 0.00 0.00 0.00 48 1013.2
20260507224017 12 323 6.4 11.3 0.00 0.00 0.00 49 1013.2
20260507223057 12 292 8.0 16.1 0.00 0.00 0.00 48 1013.3
20260507222017 12 298 8.0 14.5 0.00 0.00 0.00 47 1013.4
20260507221018 12 300 11.3 17.7 0.00 0.00 0.00 47 1013.3
20260507220018 12 289 11.3 20.9 0.00 0.00 0.00 48 1013.3
20260507215018 12 278 9.7 20.9 0.00 0.00 0.00 49 1013.2
20260507214018 13 292 9.7 17.7 0.00 0.00 0.00 48 1013.0
20260507213018 13 295 9.7 19.3 0.00 0.00 0.00 47 1013.0
20260507212018 12 314 11.3 24.1 0.00 0.00 0.00 48 1013.0
20260507211016 13 313 11.3 22.5 0.00 0.00 0.00 48 1013.0
20260507210016 13 296 11.3 17.7 0.00 0.00 0.00 48 1013.0
20260507205016 13 321 11.3 19.3 0.00 0.00 0.00 47 1012.9
20260507204016 12 313 6.4 16.1 0.00 0.00 0.00 50 1012.9
20260507203018 12 331 11.3 19.3 0.00 0.00 0.00 48 1013.0
20260507202016 12 292 12.9 20.9 0.00 0.00 0.00 47 1012.9
20260507201017 12 326 12.9 22.5 0.00 0.00 0.00 48 1012.9
20260507200016 12 291 11.3 20.9 0.00 0.00 0.00 52 1012.9
20260507195037 12 281 12.9 20.9 0.00 0.00 0.00 52 1013.2
20260507194017 12 294 11.3 17.7 0.00 0.00 0.00 52 1013.3
20260507193017 12 288 12.9 22.5 0.00 0.00 0.00 55 1013.3
20260507192017 12 290 11.3 20.9 0.00 0.00 0.00 54 1013.3
20260507191018 12 292 14.5 24.1 0.00 0.00 0.00 55 1013.4
20260507190018 12 281 12.9 20.9 0.00 0.00 0.00 56 1013.4
20260507185018 11 270 14.5 20.9 0.00 0.00 0.00 56 1013.5
20260507184018 12 276 12.9 22.5 0.00 0.00 0.00 57 1013.5
20260507183040 11 275 12.9 20.9 0.00 0.00 0.00 58 1013.5
20260507182015 11 272 11.3 20.9 0.00 0.00 0.00 59 1013.6
20260507181036 11 279 12.9 20.9 0.00 0.00 0.00 59 1013.6
20260507180036 11 282 11.3 20.9 0.00 0.00 0.00 59 1013.6
20260507175016 11 273 14.5 20.9 0.00 0.00 0.00 59 1013.7
20260507174016 11 292 12.9 24.1 0.00 0.00 0.00 59 1013.7
20260507172036 11 287 9.7 20.9 0.00 0.00 0.00 59 1013.9
20260507171017 11 270 12.9 20.9 0.00 0.00 0.00 59 1014.0
20260507170017 11 284 11.3 20.9 0.00 0.00 0.00 58 1014.0
20260507165017 11 273 14.5 20.9 0.00 0.00 0.00 58 1014.0
20260507164017 11 263 9.7 17.7 0.00 0.00 0.00 56 1014.1
20260507163017 11 265 12.9 20.9 0.00 0.00 0.00 56 1014.0
20260507162017 11 271 11.3 20.9 0.00 0.00 0.00 55 1014.0
20260507161018 11 275 8.0 17.7 0.00 0.00 0.00 57 1013.9
20260507160018 11 258 9.7 17.7 0.00 0.00 0.00 57 1013.9
20260507155018 10 264 6.4 14.5 0.00 0.00 0.00 62 1013.9
20260507154018 10 272 9.7 19.3 0.00 0.00 0.00 58 1013.9
20260507153018 10 268 9.7 16.1 0.00 0.00 0.00 62 1013.8
20260507151016 10 277 9.7 16.1 0.00 0.00 0.00 63 1013.8
20260507150016 10 292 9.7 16.1 0.00 0.00 0.00 64 1013.9
20260507145016 10 287 9.7 17.7 0.00 0.00 0.00 64 1013.9
20260507144016 10 268 9.7 16.1 0.00 0.00 0.00 65 1014.0
20260507143016 9 286 8.0 12.9 0.00 0.00 0.00 67 1014.0
20260507142039 9 278 11.3 19.3 0.00 0.00 0.00 67 1014.0
20260507141036 8 276 8.0 14.5 0.00 0.00 0.00 70 1014.0
20260507140057 8 276 8.0 17.7 0.00 0.00 0.00 71 1014.1